TimeEDT,TemperatureF,Dew PointF,Humidity,Sea Level PressureIn,VisibilityMPH,Wind Direction,Wind SpeedMPH,Gust SpeedMPH,PrecipitationIn,Events,Conditions,WindDirDegrees,DateUTC
12:56 AM,37.9,30.9,76,30.16,-9999.0,South,8.1,-,N/A,,Unknown,190,2013-06-04 04:56:00
1:56 AM,36.0,30.0,79,30.16,-9999.0,South,8.1,-,N/A,,Unknown,180,2013-06-04 05:56:00
2:56 AM,34.0,28.9,82,30.16,-9999.0,South,9.2,-,N/A,,Unknown,180,2013-06-04 06:56:00
3:56 AM,33.1,28.0,82,30.16,-9999.0,South,8.1,-,N/A,,Unknown,190,2013-06-04 07:56:00
4:56 AM,34.0,28.0,79,30.17,-9999.0,South,10.4,-,N/A,,Unknown,180,2013-06-04 08:56:00
5:56 AM,34.0,28.0,79,30.18,-9999.0,South,5.8,-,N/A,,Unknown,190,2013-06-04 09:56:00
6:56 AM,36.0,28.9,76,30.21,-9999.0,SSW,4.6,-,N/A,,Unknown,200,2013-06-04 10:56:00
7:56 AM,42.1,33.1,70,30.21,-9999.0,South,3.5,-,N/A,,Unknown,180,2013-06-04 11:56:00
8:56 AM,52.0,37.9,59,30.22,-9999.0,Calm,Calm,-,N/A,,Unknown,0,2013-06-04 12:56:00
9:56 AM,55.0,34.0,45,30.22,-9999.0,Calm,Calm,-,N/A,,Unknown,0,2013-06-04 13:56:00
10:56 AM,55.9,39.9,55,30.22,-9999.0,NNE,5.8,-,N/A,,Unknown,30,2013-06-04 14:56:00
11:56 AM,52.0,37.0,57,30.23,-9999.0,North,4.6,-,N/A,,Unknown,10,2013-06-04 15:56:00
12:56 PM,52.0,37.9,59,30.24,-9999.0,NNE,5.8,-,N/A,,Unknown,20,2013-06-04 16:56:00
1:56 PM,54.0,39.0,57,30.25,-9999.0,North,4.6,-,N/A,,Unknown,360,2013-06-04 17:56:00
2:56 PM,54.0,39.0,57,30.23,-9999.0,North,5.8,-,N/A,,Unknown,10,2013-06-04 18:56:00
3:56 PM,51.1,36.0,56,30.23,-9999.0,North,9.2,-,N/A,,Unknown,10,2013-06-04 19:56:00
4:56 PM,52.0,37.9,59,30.22,-9999.0,NNE,8.1,-,N/A,,Unknown,20,2013-06-04 20:56:00
5:56 PM,50.0,37.0,61,30.22,-9999.0,North,5.8,-,N/A,,Unknown,10,2013-06-04 21:56:00
6:56 PM,50.0,37.0,61,30.21,-9999.0,North,4.6,-,N/A,,Unknown,350,2013-06-04 22:56:00
7:56 PM,48.9,37.0,64,30.21,-9999.0,Calm,Calm,-,N/A,,Unknown,0,2013-06-04 23:56:00
8:56 PM,48.9,39.9,71,30.20,-9999.0,Calm,Calm,-,N/A,,Unknown,0,2013-06-05 00:56:00
9:56 PM,48.9,39.9,71,30.21,-9999.0,Calm,Calm,-,N/A,,Unknown,0,2013-06-05 01:56:00
10:56 PM,48.9,39.0,69,30.21,-9999.0,South,3.5,-,N/A,,Unknown,190,2013-06-05 02:56:00
11:56 PM,48.9,37.9,66,30.21,-9999.0,Calm,Calm,-,N/A,,Unknown,0,2013-06-05 03:56:00